Location: El Águila
(10.4167°N, 66.7167°W)
Time: 04:31:41
(UTC+00:00)

Cosmos 1733 Rocket - Pass Details

Date: 02 October 2022
Orbit: 601 x 628 km, 82.5° (Epoch: 26 November)

Event Time Altitude Azimuth Distance (km) Brightness Sun altitude
Rises 22:45:20 0° 195° (SSW) 2,876 6.7 -7.9°
Reaches altitude 10° 22:47:37 10° 201° (SSW) 1,976 6.0 -8.4°
Maximum altitude 22:51:49 47° 275° (W) 819 4.3 -9.5°
Drops below altitude 10° 22:56:04 10° 349° (N) 1,989 5.8 -10.5°
Sets 22:58:22 0° 355° (N) 2,898 6.5 -11.1°
